Regional Weather Roundup
Issued by NWS Northern Indiana

Home | Current Version | Previous Version | Graphics & Text | Print | Product List | Glossary On
Versions: 1 2 3 4 5 6 7 8 9 10 11 12 13 14 15 16 17 18 19 20 21 22 23 24 25 26 27 28 29 30 31 32 33 34 35 36 37 38 39 40 41 42 43 44 45 46 47 48 49 50
000
ASUS43 KIWX 250500
RWRIWX

KIWX WEATHER ROUNDUP
NATIONAL WEATHER SERVICE NORTHERN INDIANA
100 AM EDT THU MAY 25 2017

NOTE: "FAIR" INDICATES FEW OR NO CLOUDS BELOW 12,000 FEET WITH NO
SIGNIFICANT WEATHER AND/OR OBSTRUCTIONS TO VISIBILITY.

* THESE STATIONS ARE NOT UNDER NWS QUALITY CONTROL. THEY ALSO MAY NOT
  REPORT WEATHER SUCH AS PRECIPITATION OR FOG.

INZ001>027-250600-
NORTHERN INDIANA

CITY           SKY/WX    TMP DP  RH WIND       PRES   REMARKS
MICHIGAN CITY* CLOUDY    54  54 100 N9        29.52S
SOUTH BEND     CLOUDY    58  57  97 N12       29.48F FOG
GOSHEN         CLOUDY    59  55  87 N13       29.44F FOG
MONTICELLO*    CLOUDY    53  51  95 NW14      29.47S FOG
ANGOLA*        CLOUDY    57  46  67 NE9       29.44S
FORT WAYNE     RAIN      59  57  93 N14       29.38F FOG
PERU/GRISSOM   LGT RAIN  59  59 100 N14       29.40F

$$
INZ028>050-250600-
CENTRAL INDIANA

CITY           SKY/WX    TMP DP  RH WIND       PRES   REMARKS
LAFAYETTE      CLOUDY    53  53 100 NW12      29.48R FOG
KOKOMO*        RAIN      58  57  97 N14       29.41F FOG
MUNCIE*        RAIN      60  58  92 N7        29.37S FOG
INDIANAPOLIS   CLOUDY    59  55  87 NW12      29.43S

$$
MIZ043>046-050>051-056>058-064>065-071>073-077>080-250600-
SOUTHWEST LOWER MICHIGAN

CITY           SKY/WX    TMP DP  RH WIND       PRES   REMARKS
BATTLE CREEK   LGT RAIN  58  57  97 NE12      29.49F
BENTON HARBOR  CLOUDY    56  54  93 CALM      29.50S FOG
HOLLAND        CLOUDY    60  54  80 NE7       29.54S
GRAND RAPIDS   CLOUDY    56  56 100 NE13      29.53F
KALAMAZOO      LGT RAIN  59  55  87 NE9       29.49S FOG

$$
OHZ001>008-015>018-024>025-250600-
NORTHWEST OHIO

CITY           SKY/WX    TMP DP  RH WIND       PRES   REMARKS
DEFIANCE       CLOUDY    59  57  93 NE9       29.41F
FINDLAY        CLOUDY    64  58  80 E9        29.39F
TOLEDO EXPRESS CLOUDY    59  59 100 NE12      29.43F
TOLEDO METCALF CLOUDY    60  59  96 NE12      29.44F
LIMA           CLOUDY    62  61  96 E12       29.37S

$$
AND FOR LAKE MICHIGAN COASTAL AND OPEN LAKE BUOY OBSERVATIONS

STATION/POSITION TEMP    WIND        PRES    VSBY  WAVE
                 AIR SEA DIR/SP/G                  HT/PER
                 (F)     (DEG/KT/KT) (MB)    (MI)  (FT/S)
CALUMET HARBOR    50     330/ 13/ 21 1000.4S
MICHIGAN CITY     51     330/ 19/ 21   N/A
BURNS HARBOR      49     340/ 16/ 23 1000.3S
SOUTH LAKE BUOY   46 45  350/ 14/ 17 1000.7          4/ 6
4 MI NW BRIDGMAN  55 57   20/ 16/ 19  999.6S         4/ 6
MICHIGAN CITY     50 53  340/ 16/ 21   N/A           5/ 6

$$
&&



USA.gov is the U.S. government's official web portal to all federal, state and local government web resources and services.